Location: Équennes
(49.7375°N, 1.9622°E)
Time: 18:32:21
(UTC+00:00)

Cosmos 2278 - Pass Details

Date: 26 September 2023
Orbit: 838 x 853 km, 71.1° (Epoch: 08 December)

Event Time Altitude Azimuth Distance (km) Brightness Sun altitude
Rises 03:26:20 0° 325° (NW) 3,428 6.8 -22.3°
Reaches altitude 10° 03:28:59 10° 316° (NW) 2,489 6.0 -21.9°
Enters shadow 03:30:25 17° 307° (NW) 2,034 5.4 -21.7°
